Regional Weather Roundup
Issued by NWS Sterling, VA

Home | Current Version | Previous Version | Graphics & Text | Print | Product List | Glossary On
Versions: 1 2 3 4 5 6 7 8 9 10 11 12 13 14 15 16 17 18 19 20 21 22 23 24 25 26 27 28 29 30 31 32 33 34 35 36 37 38 39 40 41 42 43 44 45 46 47 48 49 50
649
ASUS41 KLWX 261510
RWRLWX

REGIONAL WEATHER ROUNDUP
NATIONAL WEATHER SERVICE BALTIMORE MD/WASHINGTON DC
1100 AM EDT SUN MAR 26 2017

Note: "FAIR" indicates few or no clouds below 12,000 feet
with no significant weather and/or obstructions to visibility.
 TC=TEMPERATURE CELSIUS

 * =Non NWS site. Station does not report precipitation (e.g. rain,
    snow, etc.), thunder, or fog.

DCZ001-MDZ009-015-VAZ040>042-051-053>054-261600-
WASHINGTON METRO

CITY           SKY/WX    TMP DP  RH WIND       PRES   REMARKS
WASHINGTON NAT CLOUDY    48  45  89 E12       30.35R
DULLES         CLOUDY    48  42  80 E7        30.34R
ANDREWS AFB    CLOUDY    46  43  92 E9        30.33R
FT BELVOIR     CLOUDY    48  43  85 VRB3      30.34S
QUANTICO       CLOUDY    49  47  93 E7        30.35R
COLLEGE PARK*  CLOUDY    45  41  87 E12       30.36R
LEESBURG*      CLOUDY    48  45  87 SE3       30.34S
MANASSAS*      CLOUDY    47  44  90 E7        30.35R

$$

MDZ006>007-011-014-261600-
BALTIMORE METRO

CITY           SKY/WX    TMP DP  RH WIND       PRES   REMARKS
BWI AIRPORT    CLOUDY    46  42  86 E13       30.36R
MD SCIENCE CTR   N/A     47  40  76 MISG      30.38R
MARTIN STATE   CLOUDY    46  45  93 E8        30.39R
ANNAPOLIS      CLOUDY    47  43  86 E10       30.36S
FORT MEADE*    CLOUDY    45  41  87 E10       30.39R

$$

MDZ012-015-019>023-261600-
MARYLAND EASTERN SHORE

CITY           SKY/WX    TMP DP  RH WIND       PRES   REMARKS
OCEAN CITY     CLOUDY    47  44  90 NE9       30.35R FOG
SALISBURY      CLOUDY    49  47  93 E12       30.34S FOG
BAY BRIDGE AP* CLOUDY    46  43  87 E9G17     30.37R FOG
CAMBRIDGE*     CLOUDY    48  45  87 E8G14     30.35S
EASTON*        CLOUDY    46  43  87 E10G17    30.39S FOG

$$

MDZ017>025-261600-
SOUTHERN MARYLAND

CITY           SKY/WX    TMP DP  RH WIND       PRES   REMARKS
PATUXENT RIVER CLOUDY    48  48 100 E10       30.33S FOG
ST INIGOES     CLOUDY    49  47  93 NE14      30.32S FOG
LEONARDTOWN*   CLOUDY    46  45  93 E5        30.35S

$$

MDZ003>005-261600-
NORTH CENTRAL MARYLAND

CITY           SKY/WX    TMP DP  RH WIND       PRES   REMARKS
FREDERICK*     CLOUDY    48  45  87 E3        30.38R
HAGERSTOWN APT CLOUDY    47  41  80 E8        30.32R
WESTMINSTER*   CLOUDY    45  43  93 SE7       30.34S

$$

MDZ501>502-261600-
WESTERN MARYLAND

CITY           SKY/WX    TMP DP  RH WIND       PRES   REMARKS
OAKLAND*       FOG       41  41 100 SE14G20   30.19S VSB<1/4
CUMBERLAND*    CLOUDY    50  43  76 CALM      30.31S

$$

VAZ025>031-261600-
SHENANDOAH VALLEY

CITY           SKY/WX    TMP DP  RH WIND       PRES   REMARKS
WINCHESTER*    CLOUDY    45  41  87 E7        30.31R
FRONT ROYAL*   CLOUDY    50  45  81 E7        30.28S
LURAY*         CLOUDY    55  48  76 NE3       30.26R
NEW MARKET*    CLOUDY    51  44  77 N9        30.26R
STAUNTON*      CLOUDY    57  49  75 CALM      30.26S
WAYNESBORO*    CLOUDY    58  49  73 SE12      30.24S

$$

WVZ021-048>050-054>055-261600-
EASTERN WEST VIRGINIA PANHANDLE

CITY           SKY/WX    TMP DP  RH WIND       PRES   REMARKS
MARTINSBURG    CLOUDY    47  41  80 SE8       30.32R
PETERSBURG*    CLOUDY    56  49  76 CALM      30.24R

$$

VAZ036>039-050-261600-
CENTRAL FOOTHILLS

CITY           SKY/WX    TMP DP  RH WIND       PRES   REMARKS
CHARLOTTESVILL CLOUDY    54  45  71 NE9       30.29S
CULPEPER*      CLOUDY    50  46  86 NE5       30.33S
ORANGE*        CLOUDY    52  45  76 N5        30.32S
GORDONSVILLE*  CLOUDY    52  46  79 N6        30.30S
WARRENTON*     CLOUDY    50  44  80 NE7       30.32S

$$

VAZ055>057-261600-
NORTH AND CENTRAL PIEDMONT

CITY           SKY/WX    TMP DP  RH WIND       PRES   REMARKS
FREDERICKSBRG* CLOUDY    50  47  90 E8        30.32S
STAFFORD*      CLOUDY    48  47  97 NE9       30.37R FOG

$$

NCZ024-NYZ072-PAZ021-071-VAZ022-071-261600-
OTHER REGIONAL OBSERVATIONS

CITY           SKY/WX    TMP DP  RH WIND       PRES   REMARKS
NEW YORK CITY  CLOUDY    39  32  76 E14G20    30.50R
PHILADELPHIA   CLOUDY    44  37  76 E14       30.42R
PITTSBURGH     CLOUDY    63  50  62 SE16G22   30.09S
ROANOKE        CLOUDY    62  52  69 SE8       30.24S
RICHMOND       PTSUNNY   62  52  69 E6        30.28R
RALEIGH        PTSUNNY   69  54  58 S9        30.26R

$$

ANZ530>537-261600-
MARINE OBSERVATIONS

STATION/POSITION TIME  TEMP    WIND        PRES
                       AIR SEA DIR/SP/G
                 (UTC) (F)     (DEG/KT/KT) (MB)
THOMAS PT LIGHT  1500   45 45   80/ 12/ 15   N/A
BALT KEY BRIDGE  1442   45      80/ 11/ 13 1028.4R
COVE POINT       1442   46     110/  7/  8 1028.1R
LEWISETTA        1442   48 49   80/ 10/ 13 1026.6R
SOLOMONS ISLAND  1442   46 47   80/ 10/ 11   N/A
PINEY POINT      1448          100/ 11/ 13   N/A

$$





USA.gov is the U.S. government's official web portal to all federal, state and local government web resources and services.